Wetterdaten: Samstag, 10.11.2012
Datum Zeit Temperatur Luftfeuchte Regen Wind Richtung Richtung Taupunkt Windchill Windben
10.11.2012 00:00 4,8 C 85 % 0,0 l/m 1,4 km/h (1 Bft) NO 45 2,5 C 5,0 C 2,3 km/h (1 Bft)
10.11.2012 00:05 5,0 C 83 % 0,0 l/m 1,6 km/h (1 Bft) N 360 2,4 C 5,2 C 2,6 km/h (1 Bft)
10.11.2012 00:10 6,1 C 81 % 0,0 l/m 0,8 km/h (0 Bft) NO 45 3,1 C 5,8 C 0,0 km/h (0 Bft)
10.11.2012 00:15 6,9 C 78 % 0,0 l/m 1,6 km/h (1 Bft) NO 45 3,3 C 6,4 C 3,2 km/h (1 Bft)
10.11.2012 00:20 7,5 C 71 % 0,0 l/m 2,3 km/h (1 Bft) NO 45 2,6 C 7,7 C 9,0 km/h (2 Bft)
10.11.2012 00:25 7,4 C 71 % 0,0 l/m 1,9 km/h (1 Bft) NW 315 2,5 C 8,1 C 0,0 km/h (0 Bft)
10.11.2012 00:30 7,2 C 71 % 0,0 l/m 1,4 km/h (1 Bft) SO 135 2,3 C 8,4 C 3,4 km/h (1 Bft)
10.11.2012 00:35 7,1 C 70 % 0,0 l/m 1,1 km/h (1 Bft) S 180 2,0 C 8,6 C 0,0 km/h (0 Bft)
10.11.2012 00:40 7,0 C 69 % 0,0 l/m 0,8 km/h (0 Bft) W 270 1,7 C 8,1 C 2,7 km/h (1 Bft)
10.11.2012 00:45 7,0 C 70 % 0,0 l/m 0,6 km/h (0 Bft) N 360 1,9 C 7,9 C 2,7 km/h (1 Bft)
10.11.2012 00:50 7,6 C 69 % 0,0 l/m 0,8 km/h (0 Bft) NO 45 2,3 C 7,9 C 0,0 km/h (0 Bft)
10.11.2012 00:55 7,6 C 69 % 0,0 l/m 0,6 km/h (0 Bft) O-SO 112 2,3 C 8,0 C 2,3 km/h (1 Bft)
10.11.2012 01:00 7,7 C 70 % 0,0 l/m 2,1 km/h (1 Bft) O-SO 112 2,6 C 8,5 C 3,4 km/h (1 Bft)
10.11.2012 01:05 7,9 C 69 % 0,0 l/m 3,1 km/h (1 Bft) O 90 2,6 C 8,8 C 2,9 km/h (1 Bft)
10.11.2012 01:10 8,5 C 65 % 0,0 l/m 2,7 km/h (1 Bft) O 90 2,3 C 9,2 C 3,1 km/h (1 Bft)
10.11.2012 01:15 8,7 C 62 % 0,0 l/m 2,3 km/h (1 Bft) O-NO 67 1,8 C 9,2 C 3,2 km/h (1 Bft)
10.11.2012 01:20 8,8 C 61 % 0,0 l/m 2,6 km/h (1 Bft) O-SO 112 1,7 C 9,3 C 3,7 km/h (1 Bft)
10.11.2012 01:25 8,5 C 63 % 0,0 l/m 2,3 km/h (1 Bft) NO 45 1,9 C 9,4 C 0,0 km/h (0 Bft)
10.11.2012 01:30 8,6 C 63 % 0,0 l/m 1,3 km/h (1 Bft) SO 135 2,0 C 9,2 C 0,0 km/h (0 Bft)
10.11.2012 01:35 8,5 C 64 % 0,0 l/m 1,0 km/h (0 Bft) NO 45 2,1 C 9,2 C 1,6 km/h (1 Bft)
10.11.2012 01:40 8,5 C 64 % 0,0 l/m 1,3 km/h (1 Bft) N 360 2,1 C 9,1 C 3,7 km/h (1 Bft)
10.11.2012 01:45 8,5 C 65 % 0,0 l/m 1,6 km/h (1 Bft) N 360 2,3 C 9,1 C 3,4 km/h (1 Bft)
10.11.2012 01:50 8,5 C 65 % 0,0 l/m 1,4 km/h (1 Bft) N-NW 337 2,3 C 9,0 C 2,6 km/h (1 Bft)
10.11.2012 01:55 8,4 C 65 % 0,0 l/m 1,1 km/h (1 Bft) N 360 2,2 C 9,0 C 3,4 km/h (1 Bft)
10.11.2012 02:00 8,4 C 65 % 0,0 l/m 1,4 km/h (1 Bft) SO 135 2,2 C 8,9 C 1,9 km/h (1 Bft)
10.11.2012 02:05 7,7 C 67 % 0,0 l/m 1,4 km/h (1 Bft) N-NW 337 2,0 C 8,7 C 0,0 km/h (0 Bft)
10.11.2012 02:10 7,0 C 68 % 0,0 l/m 1,3 km/h (1 Bft) W-NW 292 1,5 C 8,1 C 3,5 km/h (1 Bft)
10.11.2012 02:15 6,4 C 70 % 0,0 l/m 1,4 km/h (1 Bft) W-SW 247 1,3 C 7,6 C 0,0 km/h (0 Bft)
10.11.2012 02:20 6,1 C 70 % 0,0 l/m 1,0 km/h (0 Bft) S-SO 157 1,0 C 7,0 C 0,0 km/h (0 Bft)
10.11.2012 02:25 6,3 C 71 % 0,0 l/m 0,6 km/h (0 Bft) N 360 1,4 C 6,8 C 2,3 km/h (1 Bft)
10.11.2012 02:30 6,6 C 73 % 0,0 l/m 1,6 km/h (1 Bft) N-NW 337 2,1 C 6,8 C 0,0 km/h (0 Bft)
10.11.2012 02:35 6,4 C 72 % 0,0 l/m 1,1 km/h (1 Bft) N-NO 22 1,7 C 6,8 C 0,0 km/h (0 Bft)
10.11.2012 02:40 6,5 C 73 % 0,0 l/m 0,8 km/h (0 Bft) SO 135 2,0 C 7,0 C 0,0 km/h (0 Bft)
10.11.2012 02:45 6,5 C 74 % 0,0 l/m 0,8 km/h (0 Bft) NO 45 2,2 C 7,0 C 0,0 km/h (0 Bft)
10.11.2012 02:50 7,2 C 73 % 0,0 l/m 0,2 km/h (0 Bft) N-NO 22 2,7 C 7,1 C 0,0 km/h (0 Bft)
10.11.2012 02:55 6,8 C 73 % 0,0 l/m 0,2 km/h (0 Bft) SO 135 2,3 C 7,1 C 0,0 km/h (0 Bft)
10.11.2012 03:00 6,1 C 73 % 0,0 l/m 0,0 km/h (0 Bft) SO 135 1,6 C 6,9 C 0,0 km/h (0 Bft)
10.11.2012 03:05 6,1 C 74 % 0,0 l/m 0,0 km/h (0 Bft) O 90 1,8 C 6,8 C 0,0 km/h (0 Bft)
10.11.2012 03:10 6,4 C 75 % 0,0 l/m 0,0 km/h (0 Bft) O-NO 67 2,3 C 6,7 C 0,0 km/h (0 Bft)
10.11.2012 03:15 6,4 C 75 % 0,0 l/m 0,2 km/h (0 Bft) SO 135 2,3 C 6,8 C 0,0 km/h (0 Bft)
10.11.2012 03:20 6,4 C 75 % 0,0 l/m 0,2 km/h (0 Bft) O-SO 112 2,3 C 6,8 C 0,0 km/h (0 Bft)
10.11.2012 03:25 6,2 C 75 % 0,0 l/m 0,0 km/h (0 Bft) W 270 2,1 C 6,8 C 0,0 km/h (0 Bft)
10.11.2012 03:30 6,0 C 76 % 0,0 l/m 0,0 km/h (0 Bft) W-NW 292 2,1 C 6,6 C 0,0 km/h (0 Bft)
10.11.2012 03:35 6,0 C 76 % 0,0 l/m 0,0 km/h (0 Bft) W-NW 292 2,1 C 6,5 C 0,0 km/h (0 Bft)
10.11.2012 03:40 5,8 C 77 % 0,0 l/m 0,0 km/h (0 Bft) W 270 2,1 C 6,4 C 0,0 km/h (0 Bft)
10.11.2012 03:45 5,7 C 78 % 0,0 l/m 0,0 km/h (0 Bft) N-NO 22 2,2 C 6,2 C 0,0 km/h (0 Bft)
10.11.2012 03:50 5,4 C 78 % 0,0 l/m 0,0 km/h (0 Bft) N 360 1,9 C 5,7 C 1,8 km/h (1 Bft)
10.11.2012 03:55 5,5 C 78 % 0,0 l/m 0,3 km/h (0 Bft) N 360 2,0 C 5,6 C 0,0 km/h (0 Bft)
10.11.2012 04:00 5,1 C 78 % 0,0 l/m 0,3 km/h (0 Bft) NO 45 1,6 C 5,3 C 0,0 km/h (0 Bft)
10.11.2012 04:05 5,3 C 78 % 0,0 l/m 0,0 km/h (0 Bft) NO 45 1,8 C 5,2 C 0,0 km/h (0 Bft)
10.11.2012 04:10 4,8 C 78 % 0,0 l/m 0,0 km/h (0 Bft) S-SO 157 1,3 C 5,2 C 0,0 km/h (0 Bft)
10.11.2012 04:15 4,6 C 78 % 0,0 l/m 0,0 km/h (0 Bft) NO 45 1,1 C 5,0 C 0,0 km/h (0 Bft)
10.11.2012 04:20 4,5 C 78 % 0,0 l/m 0,0 km/h (0 Bft) S 180 1,0 C 4,6 C 0,0 km/h (0 Bft)
10.11.2012 04:25 4,4 C 79 % 0,0 l/m 0,0 km/h (0 Bft) S-SO 157 1,1 C 4,6 C 0,0 km/h (0 Bft)
10.11.2012 04:30 4,9 C 79 % 0,0 l/m 0,0 km/h (0 Bft) S 180 1,6 C 4,6 C 0,0 km/h (0 Bft)
10.11.2012 04:35 4,7 C 79 % 0,0 l/m 0,0 km/h (0 Bft) S 180 1,4 C 4,7 C 0,0 km/h (0 Bft)
10.11.2012 04:40 4,6 C 80 % 0,0 l/m 0,0 km/h (0 Bft) O 90 1,5 C 4,6 C 0,0 km/h (0 Bft)
10.11.2012 04:45 5,0 C 81 % 0,0 l/m 0,0 km/h (0 Bft) W-NW 292 2,0 C 4,6 C 0,0 km/h (0 Bft)
10.11.2012 04:50 4,8 C 81 % 0,0 l/m 0,0 km/h (0 Bft) N-NO 22 1,8 C 4,7 C 0,0 km/h (0 Bft)
10.11.2012 04:55 4,6 C 81 % 0,0 l/m 0,0 km/h (0 Bft) SO 135 1,6 C 4,7 C 0,0 km/h (0 Bft)
10.11.2012 05:00 4,3 C 81 % 0,0 l/m 0,2 km/h (0 Bft) N-NW 337 1,3 C 4,5 C 0,0 km/h (0 Bft)
10.11.2012 05:05 4,3 C 82 % 0,0 l/m 0,2 km/h (0 Bft) N-NW 337 1,5 C 4,4 C 0,0 km/h (0 Bft)
10.11.2012 05:10 4,0 C 82 % 0,0 l/m 0,0 km/h (0 Bft) N-NO 22 1,2 C 4,1 C 0,0 km/h (0 Bft)
10.11.2012 05:15 4,2 C 82 % 0,0 l/m 0,0 km/h (0 Bft) N-NW 337 1,4 C 4,1 C 0,0 km/h (0 Bft)
10.11.2012 05:20 3,8 C 82 % 0,0 l/m 0,0 km/h (0 Bft) NO 45 1,0 C 3,9 C 0,0 km/h (0 Bft)
10.11.2012 05:25 3,6 C 82 % 0,0 l/m 0,0 km/h (0 Bft) NO 45 0,8 C 3,8 C 0,0 km/h (0 Bft)
10.11.2012 05:30 3,6 C 83 % 0,0 l/m 0,0 km/h (0 Bft) N-NW 337 1,0 C 3,6 C 0,0 km/h (0 Bft)
10.11.2012 05:35 3,5 C 83 % 0,0 l/m 0,0 km/h (0 Bft) W-NW 292 0,9 C 3,6 C 0,0 km/h (0 Bft)
10.11.2012 05:40 3,8 C 84 % 0,0 l/m 0,0 km/h (0 Bft) N-NO 22 1,4 C 3,6 C 0,0 km/h (0 Bft)
10.11.2012 05:45 4,1 C 84 % 0,0 l/m 0,0 km/h (0 Bft) N-NO 22 1,6 C 3,8 C 0,0 km/h (0 Bft)
10.11.2012 05:50 4,2 C 84 % 0,0 l/m 0,0 km/h (0 Bft) O-SO 112 1,7 C 4,1 C 1,6 km/h (1 Bft)
10.11.2012 05:55 3,9 C 84 % 0,0 l/m 0,2 km/h (0 Bft) N-NO 22 1,4 C 4,2 C 0,0 km/h (0 Bft)
10.11.2012 06:00 3,9 C 85 % 0,0 l/m 0,2 km/h (0 Bft) W 270 1,6 C 4,1 C 0,0 km/h (0 Bft)
10.11.2012 06:05 3,9 C 85 % 0,0 l/m 0,0 km/h (0 Bft) N 360 1,6 C 4,1 C 0,0 km/h (0 Bft)
10.11.2012 06:10 3,7 C 85 % 0,0 l/m 0,0 km/h (0 Bft) O-SO 112 1,4 C 4,0 C 0,0 km/h (0 Bft)
10.11.2012 06:15 3,7 C 85 % 0,0 l/m 0,0 km/h (0 Bft) W 270 1,4 C 4,0 C 0,0 km/h (0 Bft)
10.11.2012 06:20 3,6 C 85 % 0,0 l/m 0,0 km/h (0 Bft) W-SW 247 1,3 C 3,8 C 0,0 km/h (0 Bft)
10.11.2012 06:25 3,6 C 86 % 0,0 l/m 0,2 km/h (0 Bft) N-NW 337 1,5 C 3,7 C 0,0 km/h (0 Bft)
10.11.2012 06:30 3,9 C 86 % 0,0 l/m 0,2 km/h (0 Bft) N 360 1,8 C 3,8 C 0,0 km/h (0 Bft)
10.11.2012 06:35 3,9 C 86 % 0,0 l/m 0,0 km/h (0 Bft) SW 225 1,8 C 3,9 C 0,0 km/h (0 Bft)
10.11.2012 06:40 3,8 C 86 % 0,0 l/m 0,0 km/h (0 Bft) S-SW 202 1,7 C 3,9 C 0,0 km/h (0 Bft)
10.11.2012 06:45 3,7 C 86 % 0,0 l/m 0,0 km/h (0 Bft) S 180 1,6 C 3,8 C 0,0 km/h (0 Bft)
10.11.2012 06:50 3,7 C 86 % 0,0 l/m 0,0 km/h (0 Bft) NO 45 1,6 C 3,7 C 0,0 km/h (0 Bft)
10.11.2012 06:55 3,8 C 86 % 0,0 l/m 0,0 km/h (0 Bft) N-NW 337 1,7 C 3,7 C 0,0 km/h (0 Bft)
10.11.2012 07:00 3,7 C 86 % 0,0 l/m 0,0 km/h (0 Bft) S 180 1,6 C 3,9 C 0,0 km/h (0 Bft)
10.11.2012 07:05 3,7 C 86 % 0,0 l/m 0,0 km/h (0 Bft) O 90 1,6 C 3,9 C 0,0 km/h (0 Bft)
10.11.2012 07:10 3,9 C 87 % 0,0 l/m 0,0 km/h (0 Bft) S-SO 157 1,9 C 3,9 C 0,0 km/h (0 Bft)
10.11.2012 07:15 4,2 C 86 % 0,0 l/m 0,2 km/h (0 Bft) N-NO 22 2,1 C 4,0 C 0,0 km/h (0 Bft)
10.11.2012 07:20 4,2 C 86 % 0,0 l/m 0,2 km/h (0 Bft) O 90 2,1 C 4,2 C 0,0 km/h (0 Bft)
10.11.2012 07:25 4,1 C 86 % 0,0 l/m 0,0 km/h (0 Bft) O 90 2,0 C 4,3 C 0,0 km/h (0 Bft)
10.11.2012 07:30 4,3 C 87 % 0,0 l/m 0,0 km/h (0 Bft) N-NW 337 2,3 C 4,4 C 0,0 km/h (0 Bft)
10.11.2012 07:35 4,5 C 87 % 0,0 l/m 0,0 km/h (0 Bft) N 360 2,5 C 4,6 C 0,0 km/h (0 Bft)
10.11.2012 07:40 4,5 C 87 % 0,0 l/m 0,0 km/h (0 Bft) N-NW 337 2,5 C 4,8 C 0,0 km/h (0 Bft)
10.11.2012 07:45 4,4 C 87 % 0,0 l/m 0,2 km/h (0 Bft) W-SW 247 2,4 C 4,9 C 0,0 km/h (0 Bft)
10.11.2012 07:50 4,5 C 86 % 0,0 l/m 0,2 km/h (0 Bft) O-SO 112 2,4 C 4,9 C 0,0 km/h (0 Bft)
10.11.2012 07:55 4,6 C 87 % 0,0 l/m 0,0 km/h (0 Bft) N-NO 22 2,6 C 5,0 C 0,0 km/h (0 Bft)
10.11.2012 08:00 4,8 C 87 % 0,0 l/m 0,0 km/h (0 Bft) O 90 2,8 C 5,1 C 0,0 km/h (0 Bft)
10.11.2012 08:05 5,0 C 87 % 0,0 l/m 0,0 km/h (0 Bft) N-NW 337 3,0 C 5,2 C 0,0 km/h (0 Bft)
10.11.2012 08:10 5,1 C 87 % 0,0 l/m 0,0 km/h (0 Bft) SO 135 3,1 C 5,2 C 0,0 km/h (0 Bft)
10.11.2012 08:15 5,1 C 87 % 0,0 l/m 0,0 km/h (0 Bft) S 180 3,1 C 5,3 C 0,0 km/h (0 Bft)
10.11.2012 08:20 5,2 C 88 % 0,0 l/m 0,0 km/h (0 Bft) NO 45 3,4 C 5,3 C 0,0 km/h (0 Bft)
10.11.2012 08:25 5,3 C 88 % 0,0 l/m 0,0 km/h (0 Bft) N 360 3,5 C 5,3 C 0,0 km/h (0 Bft)
10.11.2012 08:30 5,8 C 89 % 0,0 l/m 0,0 km/h (0 Bft) O 90 4,1 C 5,7 C 0,0 km/h (0 Bft)
10.11.2012 08:35 6,1 C 89 % 0,0 l/m 0,2 km/h (0 Bft) N 360 4,4 C 5,8 C 1,8 km/h (1 Bft)
10.11.2012 08:40 6,3 C 89 % 0,0 l/m 0,2 km/h (0 Bft) O-SO 112 4,6 C 6,2 C 0,0 km/h (0 Bft)
10.11.2012 08:45 6,5 C 89 % 0,0 l/m 0,6 km/h (0 Bft) S-SO 157 4,8 C 6,4 C 2,7 km/h (1 Bft)
10.11.2012 08:50 6,8 C 90 % 0,0 l/m 1,6 km/h (1 Bft) N-NW 337 5,3 C 6,6 C 0,0 km/h (0 Bft)
10.11.2012 08:55 7,0 C 89 % 0,0 l/m 1,4 km/h (1 Bft) N 360 5,3 C 6,8 C 1,9 km/h (1 Bft)
10.11.2012 09:00 7,6 C 90 % 0,0 l/m 0,3 km/h (0 Bft) S 180 6,1 C 7,4 C 0,0 km/h (0 Bft)
10.11.2012 09:05 7,7 C 89 % 0,0 l/m 0,3 km/h (0 Bft) S-SW 202 6,0 C 7,7 C 0,0 km/h (0 Bft)
10.11.2012 09:10 7,7 C 89 % 0,0 l/m 0,0 km/h (0 Bft) S-SO 157 6,0 C 8,0 C 0,0 km/h (0 Bft)
10.11.2012 09:15 7,7 C 89 % 0,0 l/m 0,0 km/h (0 Bft) NO 45 6,0 C 8,2 C 0,0 km/h (0 Bft)
10.11.2012 09:20 7,8 C 90 % 0,0 l/m 0,3 km/h (0 Bft) SO 135 6,3 C 8,3 C 0,0 km/h (0 Bft)
10.11.2012 09:25 8,0 C 90 % 0,0 l/m 0,3 km/h (0 Bft) N-NO 22 6,5 C 8,6 C 1,6 km/h (1 Bft)
10.11.2012 09:30 8,8 C 90 % 0,0 l/m 0,0 km/h (0 Bft) NW 315 7,3 C 9,2 C 0,0 km/h (0 Bft)
10.11.2012 09:35 8,9 C 90 % 0,0 l/m 0,0 km/h (0 Bft) W-SW 247 7,4 C 9,5 C 0,0 km/h (0 Bft)
10.11.2012 09:40 9,0 C 90 % 0,0 l/m 0,0 km/h (0 Bft) W 270 7,4 C 9,8 C 0,0 km/h (0 Bft)
10.11.2012 09:45 9,1 C 90 % 0,0 l/m 0,2 km/h (0 Bft) W 270 7,5 C 9,9 C 0,0 km/h (0 Bft)
10.11.2012 09:50 9,4 C 90 % 0,0 l/m 0,3 km/h (0 Bft) N-NW 337 7,8 C 10,3 C 0,0 km/h (0 Bft)
10.11.2012 09:55 9,5 C 90 % 0,0 l/m 0,3 km/h (0 Bft) N-NO 22 7,9 C 10,5 C 0,0 km/h (0 Bft)
10.11.2012 10:00 9,8 C 89 % 0,0 l/m 0,3 km/h (0 Bft) N 360 8,1 C 10,7 C 2,3 km/h (1 Bft)
10.11.2012 10:05 9,8 C 89 % 0,0 l/m 0,2 km/h (0 Bft) W-SW 247 8,1 C 10,8 C 0,0 km/h (0 Bft)
10.11.2012 10:10 9,8 C 89 % 0,0 l/m 0,2 km/h (0 Bft) N-NW 337 8,1 C 10,9 C 0,0 km/h (0 Bft)
10.11.2012 10:15 10,0 C 84 % 0,0 l/m 0,5 km/h (0 Bft) W 270 7,4 C 11,0 C 6,4 km/h (2 Bft)
10.11.2012 10:20 10,6 C 83 % 0,0 l/m 2,4 km/h (1 Bft) O-SO 112 7,8 C 11,5 C 3,4 km/h (1 Bft)
10.11.2012 10:25 10,7 C 83 % 0,0 l/m 2,7 km/h (1 Bft) N-NO 22 7,9 C 11,8 C 0,0 km/h (0 Bft)
10.11.2012 10:30 11,1 C 81 % 0,0 l/m 1,1 km/h (1 Bft) W-NW 292 8,0 C 12,4 C 2,9 km/h (1 Bft)
10.11.2012 10:35 11,2 C 81 % 0,0 l/m 1,0 km/h (0 Bft) W-NW 292 8,1 C 13,4 C 2,7 km/h (1 Bft)
10.11.2012 10:40 11,4 C 82 % 0,0 l/m 1,1 km/h (1 Bft) NO 45 8,4 C 14,2 C 0,0 km/h (0 Bft)
10.11.2012 10:45 11,9 C 83 % 0,0 l/m 1,6 km/h (1 Bft) W 270 9,1 C 14,8 C 1,9 km/h (1 Bft)
10.11.2012 10:50 12,8 C 79 % 0,0 l/m 1,9 km/h (1 Bft) S-SW 202 9,2 C 15,2 C 6,9 km/h (2 Bft)
10.11.2012 10:55 13,0 C 81 % 0,0 l/m 2,4 km/h (1 Bft) N-NW 337 9,8 C 15,3 C 3,7 km/h (1 Bft)
10.11.2012 11:00 13,4 C 79 % 0,0 l/m 2,9 km/h (1 Bft) S 180 9,8 C 15,4 C 0,0 km/h (0 Bft)
10.11.2012 11:05 13,6 C 70 % 0,0 l/m 2,1 km/h (1 Bft) S 180 8,2 C 15,4 C 2,4 km/h (1 Bft)
10.11.2012 11:10 13,9 C 73 % 0,0 l/m 1,6 km/h (1 Bft) N-NW 337 9,1 C 15,6 C 3,2 km/h (1 Bft)
10.11.2012 11:15 14,0 C 76 % 0,0 l/m 1,9 km/h (1 Bft) W-SW 247 9,8 C 15,8 C 2,9 km/h (1 Bft)
10.11.2012 11:20 14,2 C 65 % 0,0 l/m 2,6 km/h (1 Bft) N-NW 337 7,7 C 16,0 C 4,7 km/h (1 Bft)
10.11.2012 11:25 14,3 C 66 % 0,0 l/m 3,4 km/h (1 Bft) W-NW 292 8,0 C 16,2 C 3,7 km/h (1 Bft)
10.11.2012 11:30 14,3 C 69 % 0,0 l/m 4,2 km/h (1 Bft) W-NW 292 8,7 C 16,4 C 10,5 km/h (2 Bft)
10.11.2012 11:35 14,3 C 62 % 0,0 l/m 4,3 km/h (1 Bft) W 270 7,1 C 16,3 C 8,7 km/h (2 Bft)
10.11.2012 11:40 14,3 C 61 % 0,0 l/m 4,5 km/h (1 Bft) W-NW 292 6,9 C 16,5 C 10,6 km/h (2 Bft)
10.11.2012 11:45 14,4 C 57 % 0,0 l/m 5,6 km/h (1 Bft) N-NW 337 6,0 C 16,7 C 8,7 km/h (2 Bft)
10.11.2012 11:50 14,9 C 58 % 0,0 l/m 4,5 km/h (1 Bft) W-NW 292 6,7 C 18,1 C 0,0 km/h (0 Bft)
10.11.2012 11:55 15,0 C 56 % 0,0 l/m 3,5 km/h (1 Bft) NW 315 6,3 C 18,1 C 4,2 km/h (1 Bft)
10.11.2012 12:00 14,8 C 58 % 0,0 l/m 2,7 km/h (1 Bft) N-NO 22 6,6 C 18,2 C 2,4 km/h (1 Bft)
10.11.2012 12:05 14,9 C 59 % 0,0 l/m 2,6 km/h (1 Bft) W-NW 292 7,0 C 18,8 C 4,0 km/h (1 Bft)
10.11.2012 12:10 15,4 C 57 % 0,0 l/m 1,4 km/h (1 Bft) W-NW 292 6,9 C 19,7 C 5,6 km/h (1 Bft)
10.11.2012 12:15 15,6 C 56 % 0,0 l/m 1,6 km/h (1 Bft) O 90 6,9 C 19,6 C 2,9 km/h (1 Bft)
10.11.2012 12:20 15,5 C 59 % 0,0 l/m 1,3 km/h (1 Bft) S 180 7,5 C 19,6 C 1,8 km/h (1 Bft)
10.11.2012 12:25 15,6 C 57 % 0,0 l/m 1,0 km/h (0 Bft) N 360 7,1 C 19,4 C 3,9 km/h (1 Bft)
10.11.2012 12:30 15,7 C 58 % 0,0 l/m 2,7 km/h (1 Bft) W 270 7,5 C 19,0 C 5,5 km/h (1 Bft)
10.11.2012 12:35 15,4 C 58 % 0,0 l/m 3,5 km/h (1 Bft) W-NW 292 7,2 C 18,5 C 0,0 km/h (0 Bft)
10.11.2012 12:40 15,4 C 58 % 0,0 l/m 2,1 km/h (1 Bft) SO 135 7,2 C 18,1 C 1,9 km/h (1 Bft)
10.11.2012 12:45 15,5 C 58 % 0,0 l/m 0,6 km/h (0 Bft) S-SW 202 7,3 C 18,2 C 0,0 km/h (0 Bft)
10.11.2012 12:50 15,8 C 58 % 0,0 l/m 0,2 km/h (0 Bft) O-SO 112 7,6 C 18,5 C 2,6 km/h (1 Bft)
10.11.2012 12:55 16,0 C 57 % 0,0 l/m 0,6 km/h (0 Bft) O-SO 112 7,5 C 18,8 C 2,6 km/h (1 Bft)
10.11.2012 13:00 16,0 C 57 % 0,0 l/m 4,0 km/h (1 Bft) O-SO 112 7,5 C 18,8 C 11,3 km/h (2 Bft)
10.11.2012 13:05 15,9 C 58 % 0,0 l/m 5,1 km/h (1 Bft) S 180 7,6 C 18,4 C 5,6 km/h (1 Bft)
10.11.2012 13:10 15,8 C 59 % 0,0 l/m 4,8 km/h (1 Bft) SO 135 7,8 C 17,8 C 7,9 km/h (2 Bft)
10.11.2012 13:15 15,8 C 60 % 0,0 l/m 4,8 km/h (1 Bft) SO 135 8,1 C 17,5 C 3,5 km/h (1 Bft)
10.11.2012 13:20 15,8 C 59 % 0,0 l/m 4,0 km/h (1 Bft) S 180 7,8 C 17,4 C 3,2 km/h (1 Bft)
10.11.2012 13:25 15,8 C 59 % 0,0 l/m 2,9 km/h (1 Bft) S 180 7,8 C 17,3 C 2,9 km/h (1 Bft)
10.11.2012 13:30 15,7 C 63 % 0,0 l/m 2,9 km/h (1 Bft) S 180 8,7 C 17,3 C 5,6 km/h (1 Bft)
10.11.2012 13:35 15,5 C 64 % 0,0 l/m 4,3 km/h (1 Bft) SO 135 8,7 C 17,0 C 10,3 km/h (2 Bft)
10.11.2012 13:40 15,2 C 60 % 0,0 l/m 6,1 km/h (2 Bft) S 180 7,5 C 16,6 C 4,7 km/h (1 Bft)
10.11.2012 13:45 15,1 C 58 % 0,0 l/m 6,0 km/h (2 Bft) NO 45 6,9 C 16,4 C 3,1 km/h (1 Bft)
10.11.2012 13:50 15,0 C 59 % 0,0 l/m 3,7 km/h (1 Bft) O-SO 112 7,1 C 16,2 C 10,1 km/h (2 Bft)
10.11.2012 13:55 14,7 C 60 % 0,0 l/m 3,5 km/h (1 Bft) S-SW 202 7,0 C 16,0 C 5,0 km/h (1 Bft)
10.11.2012 14:00 14,7 C 62 % 0,0 l/m 4,7 km/h (1 Bft) S 180 7,5 C 15,7 C 12,2 km/h (2 Bft)
10.11.2012 14:05 14,6 C 61 % 0,0 l/m 4,3 km/h (1 Bft) SO 135 7,2 C 15,6 C 2,9 km/h (1 Bft)
10.11.2012 14:10 14,3 C 62 % 0,0 l/m 3,4 km/h (1 Bft) SW 225 7,1 C 15,6 C 2,6 km/h (1 Bft)
10.11.2012 14:15 14,2 C 62 % 0,0 l/m 3,7 km/h (1 Bft) SO 135 7,0 C 15,4 C 5,8 km/h (2 Bft)
10.11.2012 14:20 13,8 C 63 % 0,0 l/m 5,8 km/h (2 Bft) SW 225 6,9 C 15,0 C 13,0 km/h (3 Bft)
10.11.2012 14:25 13,8 C 64 % 0,0 l/m 6,6 km/h (2 Bft) S-SO 157 7,1 C 14,8 C 6,1 km/h (2 Bft)
10.11.2012 14:30 13,6 C 65 % 0,0 l/m 6,6 km/h (2 Bft) O-SO 112 7,1 C 14,6 C 8,9 km/h (2 Bft)
10.11.2012 14:35 13,5 C 65 % 0,0 l/m 6,0 km/h (2 Bft) S-SO 157 7,1 C 14,6 C 2,6 km/h (1 Bft)
10.11.2012 14:40 13,3 C 66 % 0,0 l/m 5,5 km/h (1 Bft) S 180 7,1 C 14,3 C 5,0 km/h (1 Bft)
10.11.2012 14:45 13,1 C 66 % 0,0 l/m 4,7 km/h (1 Bft) SO 135 6,9 C 14,2 C 3,4 km/h (1 Bft)
10.11.2012 14:50 13,0 C 67 % 0,0 l/m 4,0 km/h (1 Bft) S-SO 157 7,0 C 14,1 C 5,1 km/h (1 Bft)
10.11.2012 14:55 13,1 C 67 % 0,0 l/m 2,9 km/h (1 Bft) S-SW 202 7,1 C 14,1 C 0,0 km/h (0 Bft)
10.11.2012 15:00 13,2 C 67 % 0,0 l/m 3,2 km/h (1 Bft) S 180 7,2 C 14,1 C 3,4 km/h (1 Bft)
10.11.2012 15:05 13,0 C 67 % 0,0 l/m 3,5 km/h (1 Bft) O-SO 112 7,0 C 14,0 C 2,7 km/h (1 Bft)
10.11.2012 15:10 12,6 C 68 % 0,0 l/m 2,4 km/h (1 Bft) S-SO 157 6,9 C 13,7 C 5,0 km/h (1 Bft)
10.11.2012 15:15 12,5 C 68 % 0,0 l/m 1,9 km/h (1 Bft) SO 135 6,8 C 13,6 C 2,4 km/h (1 Bft)
10.11.2012 15:20 12,2 C 69 % 0,0 l/m 2,9 km/h (1 Bft) O-SO 112 6,7 C 13,4 C 5,1 km/h (1 Bft)
10.11.2012 15:25 12,1 C 68 % 0,0 l/m 3,1 km/h (1 Bft) O-SO 112 6,4 C 13,2 C 3,4 km/h (1 Bft)
10.11.2012 15:30 11,8 C 69 % 0,0 l/m 3,5 km/h (1 Bft) SO 135 6,3 C 13,0 C 7,1 km/h (2 Bft)
10.11.2012 15:35 11,6 C 69 % 0,0 l/m 4,0 km/h (1 Bft) O-SO 112 6,1 C 12,9 C 3,7 km/h (1 Bft)
10.11.2012 15:40 11,6 C 68 % 0,0 l/m 4,5 km/h (1 Bft) S 180 5,9 C 12,7 C 2,9 km/h (1 Bft)
10.11.2012 15:45 11,5 C 68 % 0,0 l/m 3,9 km/h (1 Bft) SO 135 5,8 C 12,6 C 3,4 km/h (1 Bft)
10.11.2012 15:50 11,1 C 69 % 0,0 l/m 3,1 km/h (1 Bft) SO 135 5,6 C 12,3 C 4,0 km/h (1 Bft)
10.11.2012 15:55 10,8 C 71 % 0,0 l/m 2,9 km/h (1 Bft) O-SO 112 5,8 C 12,0 C 4,0 km/h (1 Bft)
10.11.2012 16:00 10,4 C 72 % 0,0 l/m 2,3 km/h (1 Bft) S-SO 157 5,6 C 11,5 C 0,0 km/h (0 Bft)
10.11.2012 16:05 10,2 C 74 % 0,0 l/m 1,3 km/h (1 Bft) NW 315 5,8 C 11,0 C 0,0 km/h (0 Bft)
10.11.2012 16:10 10,1 C 75 % 0,0 l/m 0,6 km/h (0 Bft) N-NW 337 5,9 C 10,6 C 3,4 km/h (1 Bft)
10.11.2012 16:15 9,8 C 75 % 0,0 l/m 0,6 km/h (0 Bft) S 180 5,6 C 10,4 C 0,0 km/h (0 Bft)
10.11.2012 16:20 9,7 C 76 % 0,0 l/m 0,2 km/h (0 Bft) N-NO 22 5,7 C 10,1 C 0,0 km/h (0 Bft)
10.11.2012 16:25 9,7 C 77 % 0,0 l/m 0,0 km/h (0 Bft) N 360 5,9 C 9,9 C 0,0 km/h (0 Bft)
10.11.2012 16:30 9,5 C 77 % 0,0 l/m 0,2 km/h (0 Bft) N 360 5,7 C 9,6 C 0,0 km/h (0 Bft)
10.11.2012 16:35 9,2 C 77 % 0,0 l/m 0,2 km/h (0 Bft) N-NW 337 5,4 C 9,3 C 0,0 km/h (0 Bft)
10.11.2012 16:40 9,1 C 78 % 0,0 l/m 0,5 km/h (0 Bft) N-NO 22 5,5 C 8,9 C 0,0 km/h (0 Bft)
10.11.2012 16:45 9,0 C 78 % 0,0 l/m 0,5 km/h (0 Bft) N-NO 22 5,4 C 8,8 C 0,0 km/h (0 Bft)
10.11.2012 16:50 8,8 C 79 % 0,0 l/m 0,2 km/h (0 Bft) N-NW 337 5,4 C 8,5 C 0,0 km/h (0 Bft)
10.11.2012 16:55 8,4 C 80 % 0,0 l/m 0,3 km/h (0 Bft) NO 45 5,2 C 8,2 C 0,0 km/h (0 Bft)
10.11.2012 17:00 8,4 C 80 % 0,0 l/m 0,2 km/h (0 Bft) NO 45 5,2 C 7,9 C 0,0 km/h (0 Bft)
10.11.2012 17:05 8,2 C 80 % 0,0 l/m 0,3 km/h (0 Bft) N 360 5,0 C 7,7 C 2,4 km/h (1 Bft)
10.11.2012 17:10 8,3 C 81 % 0,0 l/m 0,3 km/h (0 Bft) W-SW 247 5,2 C 7,5 C 0,0 km/h (0 Bft)
10.11.2012 17:15 7,5 C 81 % 0,0 l/m 0,3 km/h (0 Bft) N-NO 22 4,5 C 7,4 C 0,0 km/h (0 Bft)
10.11.2012 17:20 7,7 C 82 % 0,0 l/m 0,0 km/h (0 Bft) N-NW 337 4,8 C 7,1 C 0,0 km/h (0 Bft)
10.11.2012 17:25 8,1 C 82 % 0,0 l/m 0,0 km/h (0 Bft) N 360 5,2 C 7,1 C 0,0 km/h (0 Bft)
10.11.2012 17:30 8,1 C 81 % 0,0 l/m 0,2 km/h (0 Bft) NO 45 5,0 C 7,4 C 0,0 km/h (0 Bft)
10.11.2012 17:35 7,7 C 81 % 0,0 l/m 0,2 km/h (0 Bft) S-SO 157 4,7 C 7,4 C 1,9 km/h (1 Bft)
10.11.2012 17:40 6,8 C 82 % 0,0 l/m 0,2 km/h (0 Bft) N-NO 22 3,9 C 6,8 C 0,0 km/h (0 Bft)
10.11.2012 17:45 6,9 C 83 % 0,0 l/m 0,3 km/h (0 Bft) N 360 4,2 C 6,6 C 2,4 km/h (1 Bft)
10.11.2012 17:50 7,5 C 83 % 0,0 l/m 0,6 km/h (0 Bft) N 360 4,8 C 6,8 C 1,8 km/h (1 Bft)
10.11.2012 17:55 7,3 C 83 % 0,0 l/m 0,6 km/h (0 Bft) W-NW 292 4,6 C 7,0 C 0,0 km/h (0 Bft)
10.11.2012 18:00 6,8 C 83 % 0,0 l/m 1,1 km/h (1 Bft) O-SO 112 4,1 C 6,9 C 2,7 km/h (1 Bft)
10.11.2012 18:05 6,7 C 83 % 0,0 l/m 1,1 km/h (1 Bft) W 270 4,0 C 6,8 C 0,0 km/h (0 Bft)
10.11.2012 18:10 6,7 C 85 % 0,0 l/m 0,5 km/h (0 Bft) W-NW 292 4,4 C 6,5 C 1,9 km/h (1 Bft)
10.11.2012 18:15 6,4 C 85 % 0,0 l/m 0,3 km/h (0 Bft) O 90 4,1 C 6,5 C 0,0 km/h (0 Bft)
10.11.2012 18:20 6,1 C 85 % 0,0 l/m 0,2 km/h (0 Bft) SO 135 3,8 C 6,2 C 0,0 km/h (0 Bft)
10.11.2012 18:25 5,8 C 86 % 0,0 l/m 0,2 km/h (0 Bft) W-SW 247 3,6 C 6,0 C 1,8 km/h (1 Bft)
10.11.2012 18:30 5,2 C 86 % 0,0 l/m 0,5 km/h (0 Bft) O 90 3,1 C 5,6 C 1,8 km/h (1 Bft)
10.11.2012 18:35 5,5 C 87 % 0,0 l/m 0,6 km/h (0 Bft) N-NO 22 3,5 C 5,4 C 0,0 km/h (0 Bft)
10.11.2012 18:40 6,2 C 88 % 0,0 l/m 0,6 km/h (0 Bft) N 360 4,4 C 5,5 C 1,9 km/h (1 Bft)
10.11.2012 18:45 6,1 C 88 % 0,0 l/m 0,6 km/h (0 Bft) O 90 4,3 C 5,6 C 0,0 km/h (0 Bft)
10.11.2012 18:50 5,1 C 87 % 0,0 l/m 1,0 km/h (0 Bft) O-NO 67 3,1 C 5,3 C 1,8 km/h (1 Bft)
10.11.2012 18:55 4,9 C 87 % 0,0 l/m 1,6 km/h (1 Bft) O-NO 67 2,9 C 5,1 C 3,9 km/h (1 Bft)
10.11.2012 19:00 6,0 C 89 % 0,0 l/m 2,3 km/h (1 Bft) NO 45 4,3 C 5,5 C 0,0 km/h (0 Bft)
10.11.2012 19:05 6,0 C 89 % 0,0 l/m 2,4 km/h (1 Bft) NO 45 4,3 C 5,6 C 2,9 km/h (1 Bft)
10.11.2012 19:10 6,1 C 89 % 0,0 l/m 1,1 km/h (1 Bft) N 360 4,4 C 5,7 C 0,0 km/h (0 Bft)
10.11.2012 19:15 6,4 C 89 % 0,0 l/m 1,0 km/h (0 Bft) NO 45 4,7 C 5,9 C 1,8 km/h (1 Bft)
10.11.2012 19:20 6,3 C 89 % 0,0 l/m 0,5 km/h (0 Bft) N-NO 22 4,6 C 5,9 C 0,0 km/h (0 Bft)
10.11.2012 19:25 6,5 C 89 % 0,0 l/m 0,5 km/h (0 Bft) NO 45 4,8 C 5,9 C 2,7 km/h (1 Bft)
10.11.2012 19:30 6,5 C 89 % 0,0 l/m 1,0 km/h (0 Bft) N 360 4,8 C 6,0 C 0,0 km/h (0 Bft)
10.11.2012 19:35 6,5 C 89 % 0,0 l/m 0,6 km/h (0 Bft) O 90 4,8 C 6,0 C 0,0 km/h (0 Bft)
10.11.2012 19:40 6,3 C 88 % 0,0 l/m 0,8 km/h (0 Bft) NO 45 4,5 C 5,9 C 3,4 km/h (1 Bft)
10.11.2012 19:45 6,6 C 88 % 0,0 l/m 1,1 km/h (1 Bft) NO 45 4,8 C 6,1 C 2,3 km/h (1 Bft)
10.11.2012 19:50 6,8 C 88 % 0,0 l/m 1,0 km/h (0 Bft) O 90 5,0 C 6,2 C 0,0 km/h (0 Bft)
10.11.2012 19:55 6,4 C 87 % 0,0 l/m 0,5 km/h (0 Bft) S 180 4,4 C 6,1 C 0,0 km/h (0 Bft)
10.11.2012 20:00 5,9 C 87 % 0,0 l/m 0,0 km/h (0 Bft) N 360 3,9 C 5,9 C 0,0 km/h (0 Bft)
10.11.2012 20:05 6,0 C 86 % 0,0 l/m 0,0 km/h (0 Bft) N 360 3,8 C 5,8 C 0,0 km/h (0 Bft)
10.11.2012 20:10 5,3 C 87 % 0,0 l/m 0,0 km/h (0 Bft) N 360 3,3 C 5,6 C 0,0 km/h (0 Bft)
10.11.2012 20:15 5,6 C 87 % 0,0 l/m 0,3 km/h (0 Bft) W 270 3,6 C 5,6 C 0,0 km/h (0 Bft)
10.11.2012 20:20 5,7 C 87 % 0,0 l/m 0,3 km/h (0 Bft) W 270 3,7 C 5,7 C 0,0 km/h (0 Bft)
10.11.2012 20:25 5,7 C 87 % 0,0 l/m 0,2 km/h (0 Bft) W 270 3,7 C 5,8 C 0,0 km/h (0 Bft)
10.11.2012 20:30 6,2 C 87 % 0,0 l/m 0,3 km/h (0 Bft) N-NW 337 4,2 C 5,9 C 0,0 km/h (0 Bft)
10.11.2012 20:35 6,1 C 87 % 0,0 l/m 0,3 km/h (0 Bft) O 90 4,1 C 6,1 C 0,0 km/h (0 Bft)
10.11.2012 20:40 6,2 C 87 % 0,0 l/m 0,0 km/h (0 Bft) W-SW 247 4,2 C 6,2 C 0,0 km/h (0 Bft)
10.11.2012 20:45 5,9 C 88 % 0,0 l/m 0,0 km/h (0 Bft) N 360 4,1 C 6,1 C 0,0 km/h (0 Bft)
10.11.2012 20:50 5,9 C 88 % 0,0 l/m 0,0 km/h (0 Bft) W-NW 292 4,1 C 6,0 C 0,0 km/h (0 Bft)
10.11.2012 20:55 5,9 C 88 % 0,0 l/m 0,0 km/h (0 Bft) S-SO 157 4,1 C 6,0 C 0,0 km/h (0 Bft)
10.11.2012 21:00 6,0 C 88 % 0,0 l/m 0,0 km/h (0 Bft) N-NW 337 4,2 C 6,1 C 0,0 km/h (0 Bft)
10.11.2012 21:05 6,0 C 88 % 0,0 l/m 0,0 km/h (0 Bft) N 360 4,2 C 6,1 C 0,0 km/h (0 Bft)
10.11.2012 21:10 6,1 C 88 % 0,0 l/m 0,3 km/h (0 Bft) W-NW 292 4,3 C 6,3 C 3,4 km/h (1 Bft)
10.11.2012 21:15 6,0 C 88 % 0,0 l/m 1,1 km/h (1 Bft) S-SO 157 4,2 C 6,3 C 0,0 km/h (0 Bft)
10.11.2012 21:20 6,0 C 88 % 0,0 l/m 1,1 km/h (1 Bft) S-SO 157 4,2 C 6,3 C 0,0 km/h (0 Bft)
10.11.2012 21:25 5,9 C 88 % 0,0 l/m 0,0 km/h (0 Bft) O-NO 67 4,1 C 6,2 C 0,0 km/h (0 Bft)
10.11.2012 21:30 6,0 C 88 % 0,0 l/m 0,2 km/h (0 Bft) N-NW 337 4,2 C 6,1 C 1,8 km/h (1 Bft)
10.11.2012 21:35 5,9 C 89 % 0,0 l/m 0,2 km/h (0 Bft) W-SW 247 4,2 C 6,0 C 0,0 km/h (0 Bft)
10.11.2012 21:40 5,7 C 89 % 0,0 l/m 0,2 km/h (0 Bft) S-SO 157 4,0 C 5,9 C 0,0 km/h (0 Bft)
10.11.2012 21:45 5,8 C 89 % 0,0 l/m 0,2 km/h (0 Bft) S-SO 157 4,1 C 5,8 C 4,2 km/h (1 Bft)
10.11.2012 21:50 5,9 C 89 % 0,0 l/m 0,3 km/h (0 Bft) O-NO 67 4,2 C 5,8 C 0,0 km/h (0 Bft)
10.11.2012 21:55 6,2 C 89 % 0,0 l/m 0,3 km/h (0 Bft) O-SO 112 4,5 C 5,9 C 0,0 km/h (0 Bft)
10.11.2012 22:00 6,2 C 89 % 0,0 l/m 0,0 km/h (0 Bft) W-NW 292 4,5 C 6,1 C 0,0 km/h (0 Bft)
10.11.2012 22:05 6,0 C 88 % 0,0 l/m 0,0 km/h (0 Bft) S-SO 157 4,2 C 6,1 C 0,0 km/h (0 Bft)
10.11.2012 22:10 6,0 C 88 % 0,0 l/m 0,0 km/h (0 Bft) N-NO 22 4,2 C 6,0 C 1,9 km/h (1 Bft)
10.11.2012 22:15 6,2 C 88 % 0,0 l/m 0,3 km/h (0 Bft) N 360 4,4 C 6,1 C 2,3 km/h (1 Bft)
10.11.2012 22:20 6,1 C 88 % 0,0 l/m 0,3 km/h (0 Bft) O 90 4,3 C 6,1 C 0,0 km/h (0 Bft)
10.11.2012 22:25 6,3 C 89 % 0,0 l/m 1,0 km/h (0 Bft) N 360 4,6 C 6,2 C 0,0 km/h (0 Bft)
10.11.2012 22:30 6,7 C 89 % 0,0 l/m 1,8 km/h (1 Bft) N 360 5,0 C 6,4 C 1,9 km/h (1 Bft)
10.11.2012 22:35 6,9 C 89 % 0,0 l/m 1,0 km/h (0 Bft) NO 45 5,2 C 6,6 C 0,0 km/h (0 Bft)
10.11.2012 22:40 6,5 C 88 % 0,0 l/m 0,3 km/h (0 Bft) N-NO 22 4,7 C 6,5 C 0,0 km/h (0 Bft)
10.11.2012 22:45 6,8 C 88 % 0,0 l/m 0,3 km/h (0 Bft) N 360 5,0 C 6,5 C 0,0 km/h (0 Bft)
10.11.2012 22:50 6,1 C 87 % 0,0 l/m 0,3 km/h (0 Bft) W-NW 292 4,1 C 6,3 C 1,9 km/h (1 Bft)
10.11.2012 22:55 5,9 C 88 % 0,0 l/m 0,2 km/h (0 Bft) NO 45 4,1 C 6,2 C 0,0 km/h (0 Bft)
10.11.2012 23:00 6,0 C 87 % 0,0 l/m 0,6 km/h (0 Bft) O-NO 67 4,0 C 6,1 C 2,1 km/h (1 Bft)
10.11.2012 23:05 6,9 C 88 % 0,0 l/m 0,8 km/h (0 Bft) O 90 5,1 C 6,4 C 2,3 km/h (1 Bft)
10.11.2012 23:10 7,0 C 88 % 0,0 l/m 0,6 km/h (0 Bft) NO 45 5,2 C 6,8 C 1,8 km/h (1 Bft)
10.11.2012 23:15 7,0 C 88 % 0,0 l/m 0,5 km/h (0 Bft) S 180 5,2 C 7,1 C 0,0 km/h (0 Bft)
10.11.2012 23:20 6,1 C 87 % 0,0 l/m 0,3 km/h (0 Bft) W-SW 247 4,1 C 6,9 C 0,0 km/h (0 Bft)
10.11.2012 23:25 6,0 C 87 % 0,0 l/m 0,2 km/h (0 Bft) S-SO 157 4,0 C 6,6 C 0,0 km/h (0 Bft)
10.11.2012 23:30 6,0 C 87 % 0,0 l/m 0,2 km/h (0 Bft) O-SO 112 4,0 C 6,5 C 0,0 km/h (0 Bft)
10.11.2012 23:35 7,1 C 88 % 0,0 l/m 0,8 km/h (0 Bft) O 90 5,2 C 6,6 C 1,6 km/h (1 Bft)
10.11.2012 23:40 7,7 C 87 % 0,0 l/m 1,8 km/h (1 Bft) O-SO 112 5,7 C 7,3 C 0,0 km/h (0 Bft)
10.11.2012 23:45 7,0 C 86 % 0,0 l/m 1,3 km/h (1 Bft) SO 135 4,8 C 7,4 C 0,0 km/h (0 Bft)
10.11.2012 23:50 6,9 C 86 % 0,0 l/m 0,3 km/h (0 Bft) W-NW 292 4,7 C 7,2 C 0,0 km/h (0 Bft)
10.11.2012 23:55 7,3 C 86 % 0,0 l/m 0,5 km/h (0 Bft) S-SW 202 5,1 C 7,4 C 0,0 km/h (0 Bft)
_ Min-Zeit 05:35 12:15 - 22:10 - - 05:25 05:40 23:55
Minimum _ 3,5 C 56 % - 0,0 km/h (0 Bft) - - 0,8 C 3,6 C 0,0 km/h (0 Bft)
_ Max-Zeit 13:00 09:55 23:55 14:30 - - 11:15 12:10 14:20
Maximum _ 16,0 C 90 % 0,0 l/m 6,6 km/h
O-SO (2 Bft)
- - 9,8 C 19,7 C 13,0 km/h
SW (3 Bft)
Durchschnitt _ 8,1 C 78 % #0,0 l/m 1,2 km/h (1 Bft) SO - 4,4 C 8,7 C 1,6 km/h (1 Bft)